Overview Statistics Trail Chart Weather Telemetry Raw packets
 

This is the latest recevied weather packets stored in our database for station/object W8RSN-13. If no packets are shown the sender has not sent any weather packets the latest 10 day(s).

<< 34 35 36 37 38 39 40 >>
Time Temp. Humidity Pressure Rain* Wind** Luminosity Snow
1788447864 18.89° C 66% 1016.9 hPa - - - -
1788447563 18.33° C 65% 1017 hPa - - - -
1788447262 18.33° C 66% 1016.8 hPa - - - -
1788446962 17.78° C 67% 1017.2 hPa - - - -
1788446661 17.22° C 68% 1017 hPa - - - -
1788446360 17.22° C 67% 1017 hPa - - - -
1788446059 17.22° C 66% 1016.8 hPa - - - -
1788445758 17.22° C 66% 1016.9 hPa - - - -
1788445457 16.67° C 66% 1016.7 hPa - - - -
1788445156 16.67° C 67% 1016.7 hPa - - - -
1788444875 16.67° C 67% 1016.6 hPa - - - -
1788444574 16.11° C 68% 1016.5 hPa - - - -
1788444273 16.11° C 68% 1016.6 hPa - - - -
1788443973 16.11° C 68% 1016.4 hPa - - - -
1788443672 15.56° C 69% 1016.3 hPa - - - -
1788443371 15° C 71% 1016.3 hPa - - - -
1788443070 15° C 73% 1016.1 hPa - - - -
1788442769 14.44° C 73% 1016.1 hPa - - - -
1788442468 14.44° C 73% 1016.2 hPa - - - -
1788442167 14.44° C 74% 1016.2 hPa - - - -
1788441866 14.44° C 73% 1016.3 hPa - - - -
1788441565 14.44° C 72% 1016.3 hPa - - - -
1788441265 15° C 72% 1016.1 hPa - - - -
1788440964 15° C 73% 1016 hPa - - - -
1788440663 15° C 71% 1016 hPa - - - -

* Rain since midnight (hover to see other rain measurements)
** Current wind speed in m/s (hover to see current wind gust speed)